Voltar ao catálogo

STARLINK-1017

AtivoComunicaçõesVLEO
NORAD 44723·PAYLOAD·🇺🇸 United States

Lançado Nov 11, 2019 de Cape Canaveral Space Force Station

Loading…

Próximas Passagens (próximas 24 horas)

TLE

AtualizadoSource: CelesTrak SupGP

Época: Sep 14, 2026, 20:52 UTC

1 44723C 19074L   26257.86993056  .00025720  00000+0  65433-3 0  2575
2 44723  53.0452   8.3876 0003418 337.3441 236.2344 15.39005411    18

Acompanhe STARLINK-1017 em tempo real com AllMySat

Download on the App Store